EDT,Max TemperatureF,Mean TemperatureF,Min TemperatureF,Max Dew PointF,MeanDew PointF,Min DewpointF,Max Humidity, Mean Humidity, Min Humidity, Max Sea Level PressureIn, Mean Sea Level PressureIn, Min Sea Level PressureIn, Max VisibilityMiles, Mean VisibilityMiles, Min VisibilityMiles, Max Wind SpeedMPH, Mean Wind SpeedMPH, Max Gust SpeedMPH,PrecipitationIn, CloudCover, Events, WindDirDegrees
2012-10-1,66,58,49,57,52,47,93,75,56,29.97,29.94,29.90,10,9,4,7,2,12,0.02,5,Rain,6
2012-10-2,69,64,59,66,61,57,97,92,87,29.96,29.92,29.88,10,4,1,6,1,7,1.44,8,Rain,30
2012-10-3,83,75,67,69,67,66,100,81,62,30.12,30.04,29.95,10,5,0,12,3,18,T,4,Fog,182
2012-10-4,81,70,58,69,62,57,97,71,45,30.16,30.13,30.10,10,9,4,9,3,10,0.01,3,Rain,261
2012-10-5,80,67,54,58,55,52,90,65,39,30.16,30.08,29.97,10,10,7,12,3,16,0.00,0,,214
2012-10-6,79,64,49,59,52,35,90,67,43,30.02,29.91,29.85,10,10,9,13,6,20,0.00,2,,263
2012-10-7,53,47,41,47,44,39,96,84,71,30.19,30.12,30.01,10,7,0,8,2,13,0.07,5,Fog-Rain,326
2012-10-8,51,45,39,43,41,38,100,82,63,30.29,30.23,30.18,10,5,0,12,3,14,0.30,7,Fog-Rain,20
2012-10-9,62,54,45,50,45,41,96,76,55,30.21,30.14,30.06,10,10,6,9,2,12,0.01,7,Rain,64
2012-10-10,71,59,46,50,45,35,100,70,39,30.10,29.99,29.89,10,9,0,12,4,21,0.00,3,Fog,251
2012-10-11,64,54,44,42,33,27,89,59,29,30.30,30.22,30.12,10,10,10,10,5,14,0.00,0,,263
2012-10-12,70,55,39,46,39,37,92,62,31,30.42,30.22,30.14,10,10,10,15,5,18,0.00,0,,349
2012-10-13,62,49,35,41,36,32,92,66,39,30.52,30.43,30.33,10,10,10,14,4,18,0.00,0,,163
2012-10-14,73,59,44,56,49,40,86,66,46,30.27,30.13,29.96,10,10,10,20,9,25,0.00,1,,194
2012-10-15,72,64,55,62,54,36,84,62,39,29.93,29.78,29.66,10,9,1,18,9,23,0.14,3,Rain,215
2012-10-16,68,57,46,44,41,37,86,60,34,29.94,29.88,29.83,10,10,10,9,3,26,0.00,0,,273
2012-10-17,69,55,41,48,44,39,93,69,44,30.01,29.95,29.90,10,10,8,12,4,15,0.00,0,,171
2012-10-18,67,57,47,61,53,45,93,80,67,29.94,29.86,29.78,10,8,1,12,4,16,0.74,6,Rain-Thunderstorm,175
2012-10-19,73,61,49,61,55,40,100,66,31,29.80,29.72,29.63,10,6,0,20,4,24,0.00,5,Fog-Rain-Thunderstorm,188
2012-10-20,66,57,47,43,38,35,80,56,32,29.94,29.80,29.69,10,10,10,10,4,20,0.00,1,,228
2012-10-21,67,56,44,41,38,35,76,55,34,30.14,30.07,29.96,10,10,10,8,2,13,0.00,0,,304
2012-10-22,71,54,37,46,41,36,93,63,33,30.23,30.17,30.12,10,9,1,10,2,23,0.00,0,,187
2012-10-23,82,64,46,53,50,45,93,65,36,30.14,30.09,30.03,10,10,10,13,5,15,0.00,0,,194
2012-10-24,83,68,53,57,52,46,93,62,30,30.13,30.09,30.05,10,10,10,9,2,17,0.00,0,,196
2012-10-25,75,63,50,60,55,50,96,79,61,30.19,30.14,30.11,10,9,6,12,4,13,0.00,0,,38
2012-10-26,68,63,58,59,57,55,97,83,68,30.19,30.12,30.03,10,7,4,8,4,10,T,7,,31
2012-10-27,68,63,57,58,54,48,93,73,52,30.04,29.93,29.84,10,8,3,14,8,21,T,5,Rain,40
2012-10-28,61,56,50,52,47,41,96,74,51,29.83,29.70,29.61,10,8,2,20,10,26,0.37,8,Rain,11
2012-10-29,51,47,42,48,41,37,93,85,76,29.60,29.30,28.93,10,6,2,21,10,40,1.19,8,Rain,321
2012-10-30,45,42,38,37,33,32,92,79,65,29.47,29.26,28.93,10,9,6,14,8,25,0.08,8,Rain,233
2012-10-31,54,47,40,34,31,30,67,54,41,29.67,29.57,29.46,10,10,10,17,8,20,T,6,,218